Terminal Aerodrome Forecast
Issued by NWS

Home | Current Version | Previous Version | Text Only | Print | Product List | Glossary Off
Versions: 1 2 3 4 5 6 7 8 9 10 11 12 13 14 15 16 17 18 19 20 21

000
FTUS43 KICT 260420 AAC
TAFHUT
TAF AMD
KHUT 260420Z 2604/2624 VRB03KT 1SM BR FEW005
      TEMPO 2606/2610 1/2SM FG BKN002
     FM261000 VRB03KT 1/4SM FG VV002
     FM261400 19007KT P6SM SCT250
     FM262100 35014KT P6SM BKN090=

USA.gov is the U.S. government's official web portal to all federal, state and local government web resources and services.